Flag for Germany Past Weather in Landau in der Pfalz, Rhineland-Palatinate, Germany — Yesterday and Last 2 Weeks

Now
64 °F

Clear.


Feels Like: 64 °F
Forecast: 60 / 77 °F
Wind: 2 mph from Southeast

Location: Mannheim City

Current Time: Jul 26, 2016 at 6:31:43 AM

Latest Report: Jul 26, 2016 at 5:50 AM


Visibility: 10 mi

Pressure: 30.09 "Hg

Humidity: 100%

Dew Point: 64 °F

Location of Landau in der PfalzLocation

Past Weather in Landau in der Pfalz — Graph

°F

Landau in der Pfalz Temperature Yesterday

Maximum temperature yesterday: 84 °F (at 4:20 PM)
Minimum temperature yesterday: 68 °F (at 5:50 AM)
Average temperature yesterday: 78 °F

High & Low Weather Summary for the Past Weeks

 TemperatureHumidityPressure
High95 °F (Jul 20, 4:50 PM)100% (Jul 13, 5:50 AM)30.33 "Hg (Jul 13, 5:50 AM)
Low55 °F (Jul 16, 7:20 AM)20% (Jul 20, 5:50 PM)29.83 "Hg (Jul 11, 5:50 AM)
Average73 °F62%30.06 "Hg
* Reported Jul 11 5:50 AM — Jul 25 9:20 PM, Landau in der Pfalz, Weather by CustomWeather, © 2016

Note: Actual official high and low records may vary slightly from our data, if they occured in-between our weather recording intervals... More about our weather records

Advertising

Landau in der Pfalz Weather History for the Previous 24 Hours

Scroll right to see more
 ConditionsComfort  
Time TempWeatherWind HumidityBarometerVisibility
9:20 PM
Mon, Jul 25
79 °FSunny.3 mph54%30.07 "Hg10 mi
8:50 PM81 °FScattered clouds.5 mph48%30.07 "HgN/A
8:20 PM82 °FScattered clouds.7 mph48%30.07 "HgN/A
7:50 PM82 °FScattered clouds.6 mph45%30.07 "HgN/A
7:20 PM82 °FBroken clouds.7 mph48%30.07 "HgN/A
6:50 PM82 °FScattered clouds.6 mph51%30.07 "HgN/A
6:20 PM82 °FScattered clouds.8 mph48%30.07 "HgN/A
5:50 PM82 °FPassing clouds.6 mph48%30.07 "HgN/A
5:20 PM82 °FPassing clouds.7 mph51%30.07 "HgN/A
4:50 PM84 °FScattered clouds.7 mph45%30.04 "HgN/A
4:20 PM84 °FPassing clouds.8 mph48%30.07 "HgN/A
3:50 PM82 °FBroken clouds.3 mph48%30.07 "HgN/A
3:20 PM82 °FScattered clouds.6 mph51%30.07 "HgN/A
2:50 PM82 °FPassing clouds.6 mph48%30.07 "HgN/A
2:20 PM82 °FPassing clouds.6 mph55%30.07 "HgN/A
1:50 PM81 °FPassing clouds.7 mph58%30.07 "HgN/A
1:20 PM79 °FScattered clouds.8 mph58%30.07 "HgN/A
12:50 PM79 °FScattered clouds.3 mph61%30.07 "HgN/A
12:20 PM79 °FPassing clouds.3 mph61%30.09 "HgN/A
11:50 AM79 °FPassing clouds.6 mph61%30.09 "HgN/A
11:20 AM77 °FPassing clouds.5 mph61%30.09 "HgN/A
10:50 AM77 °FSunny.3 mph65%30.09 "Hg10 mi
10:20 AM75 °FSunny.2 mph69%30.09 "Hg10 mi
9:50 AM73 °FSunny.2 mph69%30.09 "Hg10 mi
9:20 AM73 °FPassing clouds.2 mph74%30.09 "HgN/A
8:50 AM73 °FPassing clouds.5 mph74%30.09 "HgN/A
8:20 AM73 °FSunny.2 mph89%30.09 "Hg10 mi
7:50 AM70 °FSunny.No wind100%30.09 "Hg10 mi
7:20 AM70 °FSunny.2 mph100%30.07 "Hg10 mi
6:50 AM68 °FSunny.3 mph100%30.07 "Hg10 mi
6:20 AM68 °FClear.2 mph100%30.07 "Hg10 mi
Weather by CustomWeather, © 2016

See weather overviewHow to use our weather pages